KJ5PEC-13 Weather Reports


time (UTC)temp
F
wind
direction
speed
knots
gust
knots
rain 1hr
in
rain 24hr
in
rain mn
in
humidity
%
barometer
mb
20260906225914 75 142 5.2 6.1 0.00 0.00 0.00 33 1027.7
20260906225409 74 167 6.1 7.0 0.00 0.00 0.00 36 1027.7
20260906224905 73 165 5.2 6.1 0.00 0.00 0.00 36 1027.7
20260906224401 74 112 7.0 8.7 0.00 0.00 0.00 35 1027.6
20260906223857 75 173 9.6 9.6 0.00 0.00 0.00 34 1027.8
20260906223353 74 192 6.1 7.0 0.00 0.00 0.00 36 1027.7
20260906222851 74 210 5.2 6.1 0.00 0.00 0.00 35 1027.8
20260906222350 73 126 6.1 8.7 0.00 0.00 0.00 36 1028.1
20260906221848 73 118 9.6 11.3 0.00 0.00 0.00 36 1028.1
20260906221348 73 134 4.3 5.2 0.00 0.00 0.00 38 1028.0
20260906220843 73 99 6.1 7.0 0.00 0.00 0.00 38 1028.0
20260906220338 73 148 6.1 6.1 0.00 0.00 0.00 38 1028.1
20260906215837 76 137 7.8 11.3 0.00 0.00 0.00 36 1028.4
20260906215332 78 195 1.7 2.6 0.00 0.00 0.00 25 1028.1
20260906214830 78 269 1.7 1.7 0.00 0.00 0.00 25 1028.1
20260906214325 77 198 1.7 2.6 0.00 0.00 0.00 25 1028.1
20260906213824 77 226 1.7 1.7 0.00 0.00 0.00 25 1028.1
20260906213324 78 270 1.7 1.7 0.00 0.00 0.00 25 1028.1
20260906212822 79 294 2.6 2.6 0.00 0.00 0.00 24 1028.1
20260906212317 80 297 2.6 3.5 0.00 0.00 0.00 23 1028.0
20260906211817 82 333 1.7 1.7 0.00 0.00 0.00 22 1028.0
20260906211312 83 272 1.7 1.7 0.00 0.00 0.00 21 1028.2
20260906210813 82 279 1.7 1.7 0.00 0.00 0.00 23 1028.2
20260906210313 82 190 1.7 2.6 0.00 0.00 0.00 22 1028.5
20260906205808 80 258 3.5 5.2 0.00 0.00 0.00 24 1028.4
20260906205306 81 249 1.7 1.7 0.00 0.00 0.00 23 1028.2
20260906204800 81 285 1.7 2.6 0.00 0.00 0.00 22 1028.4
20260906204259 85 200 8.7 11.3 0.00 0.00 0.00 21 1028.1
20260906203758 84 214 2.6 3.5 0.00 0.00 0.00 21 1028.4
20260906203254 84 277 1.7 2.6 0.00 0.00 0.00 20 1028.5
20260906202750 83 194 8.7 11.3 0.00 0.00 0.00 21 1028.0
20260906202250 82 317 3.5 3.5 0.00 0.00 0.00 22 1028.4
20260906201744 82 321 4.3 5.2 0.00 0.00 0.00 22 1028.5
20260906201244 82 337 4.3 6.1 0.00 0.00 0.00 22 1028.5
20260906200740 83 8 2.6 2.6 0.00 0.00 0.00 21 1028.2
20260906200236 84 347 2.6 5.2 0.00 0.00 0.00 21 1028.6
20260906195731 84 90 3.5 3.5 0.00 0.00 0.00 21 1028.8
20260906195227 84 277 2.6 3.5 0.00 0.00 0.00 21 1028.5
20260906194723 82 280 1.7 1.7 0.00 0.00 0.00 23 1028.9
20260906194218 84 298 2.6 2.6 0.00 0.00 0.00 21 1028.9
20260906193713 82 301 0.9 0.9 0.00 0.00 0.00 23 1028.9
20260906193208 83 233 0.9 1.7 0.00 0.00 0.00 23 1028.9
20260906192704 83 287 0.9 0.9 0.00 0.00 0.00 24 1029.1
20260906192204 81 275 2.6 5.2 0.00 0.00 0.00 24 1028.9
20260906191658 81 290 4.3 7.0 0.00 0.00 0.00 24 1029.4
20260906191158 81 100 1.7 1.7 0.00 0.00 0.00 25 1029.3
20260906190652 81 328 1.7 2.6 0.00 0.00 0.00 25 1029.4
20260906190147 82 207 3.5 3.5 0.00 0.00 0.00 25 1029.5
20260906185645 80 282 0.9 0.9 0.00 0.00 0.00 25 1029.4
20260906185145 81 159 2.6 2.6 0.00 0.00 0.00 25 1029.7
20260906184639 78 212 2.6 2.6 0.00 0.00 0.00 27 1029.8
20260906184136 80 145 3.5 5.2 0.00 0.00 0.00 25 1029.8
20260906183631 82 281 2.6 3.5 0.00 0.00 0.00 25 1029.9
20260906183127 80 219 3.5 7.0 0.00 0.00 0.00 26 1030.1
20260906182626 78 300 0.9 0.9 0.00 0.00 0.00 27 1029.9
20260906182123 79 326 3.5 5.2 0.00 0.00 0.00 27 1030.2
20260906181618 77 227 1.7 2.6 0.00 0.00 0.00 30 1030.6
20260906181114 78 282 5.2 6.1 0.00 0.00 0.00 30 1030.3
20260906180609 78 314 0.9 0.9 0.00 0.00 0.00 31 1030.6
20260906180109 77 35 1.7 1.7 0.00 0.00 0.00 31 1030.6
20260906175607 78 307 2.6 2.6 0.00 0.00 0.00 31 1030.7
20260906175102 77 311 0.0 0.9 0.00 0.00 0.00 31 1030.8
20260906174600 78 99 1.7 2.6 0.00 0.00 0.00 31 1031.0
20260906174055 75 332 1.7 0.9 0.00 0.00 0.00 34 1031.4
20260906173551 74 274 2.6 2.6 0.00 0.00 0.00 34 1031.2
20260906173047 74 343 5.2 5.2 0.00 0.00 0.00 34 1031.0
20260906172546 75 69 2.6 2.6 0.00 0.00 0.00 34 1031.4
20260906172042 76 322 2.6 3.5 0.00 0.00 0.00 32 1031.4
20260906171541 76 342 4.3 5.2 0.00 0.00 0.00 32 1031.4
20260906171037 77 86 1.7 2.6 0.00 0.00 0.00 32 1031.4
20260906170533 77 78 4.3 5.2 0.00 0.00 0.00 31 1031.6
20260906170032 77 337 3.5 5.2 0.00 0.00 0.00 31 1031.5
20260906165529 74 46 1.7 1.7 0.00 0.00 0.00 34 1031.6
20260906165024 75 344 1.7 1.7 0.00 0.00 0.00 34 1031.5
20260906164523 75 28 2.6 5.2 0.00 0.00 0.00 35 1031.5
20260906164020 75 17 2.6 2.6 0.00 0.00 0.00 35 1031.5
20260906163520 76 335 1.7 1.7 0.00 0.00 0.00 32 1031.6
20260906163015 75 281 1.7 1.7 0.00 0.00 0.00 35 1032.0
20260906162512 74 56 2.6 2.6 0.00 0.00 0.00 35 1031.9
20260906162007 71 74 2.6 2.6 0.00 0.00 0.00 39 1031.6
20260906161502 71 103 6.1 7.0 0.00 0.00 0.00 38 1031.9
20260906161001 70 101 3.5 3.5 0.00 0.00 0.00 42 1032.1
20260906160501 69 76 0.9 1.7 0.00 0.00 0.00 44 1032.0
20260906155958 69 126 2.6 2.6 0.00 0.00 0.00 42 1032.4
20260906155457 68 208 1.7 1.7 0.00 0.00 0.00 44 1032.3
20260906154953 67 199 1.7 2.6 0.00 0.00 0.00 46 1032.1
20260906154449 66 232 2.6 3.5 0.00 0.00 0.00 46 1032.5
20260906153947 65 209 4.3 5.2 0.00 0.00 0.00 46 1032.1
20260906153446 64 221 2.6 2.6 0.00 0.00 0.00 49 1032.0
20260906152942 64 100 0.9 1.7 0.00 0.00 0.00 47 1032.1
20260906152441 63 260 0.9 0.9 0.00 0.00 0.00 48 1032.1
20260906151940 62 228 0.9 1.7 0.00 0.00 0.00 52 1032.3
20260906151436 61 233 0.0 0.0 0.00 0.00 0.00 51 1032.1
20260906150932 60 188 0.0 0.9 0.00 0.00 0.00 56 1032.3
20260906150427 59 99 0.9 0.9 0.00 0.00 0.00 58 1032.4
20260906145926 59 122 2.6 2.6 0.00 0.00 0.00 56 1032.4
20260906145426 60 145 2.6 2.6 0.00 0.00 0.00 56 1032.4
20260906144920 59 148 2.6 3.5 0.00 0.00 0.00 57 1032.4
20260906144415 59 12 0.0 0.9 0.00 0.00 0.00 59 1032.4
20260906143910 59 189 3.5 3.5 0.00 0.00 0.00 58 1032.1
20260906143406 59 222 1.7 2.6 0.00 0.00 0.00 59 1032.4
20260906142902 58 235 0.0 0.0 0.00 0.00 0.00 60 1032.8
20260906142401 56 208 0.9 0.9 0.00 0.00 0.00 63 1032.4
20260906141856 56 165 1.7 1.7 0.00 0.00 0.00 65 1032.3
20260906141355 55 145 0.0 0.0 0.00 0.00 0.00 66 1032.3
20260906140850 54 156 0.9 0.9 0.00 0.00 0.00 68 1032.4
20260906140345 52 349 0.0 0.0 0.00 0.00 0.00 70 1032.3
20260906135843 52 350 0.9 0.9 0.00 0.00 0.00 71 1032.3
20260906135343 53 58 0.0 0.0 0.00 0.00 0.00 69 1032.7
20260906134839 54 58 1.7 0.9 0.00 0.00 0.00 68 1032.3
20260906134338 54 13 0.9 0.9 0.00 0.00 0.00 68 1031.9
20260906133835 53 308 0.9 0.9 0.00 0.00 0.00 70 1032.0
20260906133330 52 317 1.7 1.7 0.00 0.00 0.00 72 1032.0
20260906132826 51 318 0.9 0.9 0.00 0.00 0.00 73 1031.9
20260906132320 50 317 0.0 0.0 0.00 0.00 0.00 76 1032.1
20260906131816 49 318 0.9 0.9 0.00 0.00 0.00 78 1032.0
20260906131311 47 318 0.0 0.0 0.00 0.00 0.00 84 1032.0
20260906130807 46 318 0.0 0.0 0.00 0.00 0.00 85 1031.8
20260906130306 46 318 0.0 0.0 0.00 0.00 0.00 83 1031.8
20260906125805 47 318 0.9 0.9 0.00 0.00 0.00 81 1031.8
20260906125306 47 319 0.9 0.9 0.00 0.00 0.00 82 1031.6
20260906124758 46 319 0.9 0.9 0.00 0.00 0.00 83 1031.8
20260906124254 46 319 0.0 0.0 0.00 0.00 0.00 83 1031.6
20260906123753 47 319 0.0 0.0 0.00 0.00 0.00 82 1031.4
20260906123248 48 319 0.9 0.9 0.00 0.00 0.00 79 1031.4
20260906122747 49 319 0.9 0.9 0.00 0.00 0.00 77 1031.6
20260906122243 48 319 0.0 0.0 0.00 0.00 0.00 79 1031.6
20260906121739 48 319 0.9 0.9 0.00 0.00 0.00 79 1031.2
20260906121235 48 319 0.9 0.9 0.00 0.00 0.00 79 1031.4
20260906120731 48 319 0.0 0.0 0.00 0.00 0.00 80 1031.5
20260906120228 48 319 0.9 0.9 0.00 0.00 0.00 79 1031.5
20260906115723 49 319 0.0 0.0 0.00 0.00 0.00 78 1031.4
20260906115218 49 319 0.0 0.0 0.00 0.00 0.00 78 1031.5
20260906114717 48 319 0.9 0.9 0.00 0.00 0.00 79 1031.6
20260906114212 48 319 0.0 0.0 0.00 0.00 0.00 80 1031.6
20260906113708 48 319 0.9 0.9 0.00 0.00 0.00 81 1031.6
20260906113207 48 318 0.0 0.0 0.00 0.00 0.00 80 1031.6
20260906112707 48 318 0.0 0.0 0.00 0.00 0.00 80 1031.8
20260906112204 48 318 0.0 0.0 0.00 0.00 0.00 80 1031.9
20260906111703 48 318 0.0 0.0 0.00 0.00 0.00 80 1031.5
20260906111157 49 318 0.0 0.0 0.00 0.00 0.00 77 1031.5
20260906110653 50 319 0.0 0.0 0.00 0.00 0.00 75 1031.5
20260906110148 50 319 0.9 0.9 0.00 0.00 0.00 77 1031.5
20260906105642 50 319 0.0 0.0 0.00 0.00 0.00 77 1031.6
20260906105138 50 319 0.0 0.0 0.00 0.00 0.00 77 1031.6
20260906104637 50 319 0.9 0.9 0.00 0.00 0.00 78 1031.4
20260906104137 49 319 1.7 1.7 0.00 0.00 0.00 79 1031.5
20260906103635 49 319 1.7 1.7 0.00 0.00 0.00 79 1031.6
20260906103131 49 319 0.9 0.9 0.00 0.00 0.00 79 1031.4
20260906102626 50 319 0.0 0.0 0.00 0.00 0.00 77 1031.5
20260906102126 49 319 0.0 0.0 0.00 0.00 0.00 78 1031.2
20260906101626 50 319 0.0 0.0 0.00 0.00 0.00 77 1031.2
20260906101125 50 319 0.0 0.0 0.00 0.00 0.00 76 1031.4
20260906100621 51 319 0.0 0.0 0.00 0.00 0.00 75 1031.0
20260906100116 51 319 0.9 0.9 0.00 0.00 0.00 75 1031.2
20260906095616 51 319 0.0 0.0 0.00 0.00 0.00 74 1031.4
20260906095112 51 319 0.0 0.0 0.00 0.00 0.00 75 1031.4
20260906094610 50 319 0.9 0.9 0.00 0.00 0.00 76 1031.4
20260906094106 51 319 0.0 0.0 0.00 0.00 0.00 75 1031.2
20260906093602 51 319 0.0 0.0 0.00 0.00 0.00 74 1031.4
20260906093057 52 319 0.0 0.0 0.00 0.00 0.00 73 1031.2
20260906092552 52 319 0.9 0.9 0.00 0.00 0.00 73 1031.1
20260906092047 52 319 1.7 0.9 0.00 0.00 0.00 72 1031.2
20260906091543 53 319 0.0 0.0 0.00 0.00 0.00 71 1031.2
20260906091039 53 319 0.0 0.0 0.00 0.00 0.00 71 1031.2
20260906090539 53 319 0.9 0.9 0.00 0.00 0.00 71 1031.2
20260906090034 53 319 0.9 0.9 0.00 0.00 0.00 71 1031.1
20260906085533 51 319 0.0 0.0 0.00 0.00 0.00 73 1031.1
20260906085032 52 319 0.0 0.0 0.00 0.00 0.00 74 1031.1
20260906084527 52 319 0.0 0.9 0.00 0.00 0.00 72 1031.1
20260906084026 53 319 0.0 0.0 0.00 0.00 0.00 71 1031.2
20260906083522 53 319 0.0 0.0 0.00 0.00 0.00 70 1031.1
20260906083021 53 319 0.9 0.9 0.00 0.00 0.00 70 1031.1
20260906082517 53 319 0.0 0.0 0.00 0.00 0.00 71 1031.2
20260906082012 53 319 0.9 0.9 0.00 0.00 0.00 71 1031.0
20260906081508 53 319 0.0 0.0 0.00 0.00 0.00 71 1031.1
20260906081003 53 319 1.7 0.9 0.00 0.00 0.00 70 1031.2
20260906080500 54 319 1.7 0.9 0.00 0.00 0.00 68 1031.1
20260906075955 54 318 0.0 0.0 0.00 0.00 0.00 69 1031.4
20260906075449 54 318 0.0 0.0 0.00 0.00 0.00 69 1031.4
20260906074945 53 318 0.0 0.0 0.00 0.00 0.00 70 1031.2
20260906074445 54 318 0.0 0.0 0.00 0.00 0.00 69 1031.2
20260906073943 54 318 0.0 0.0 0.00 0.00 0.00 69 1031.4
20260906073438 54 318 0.0 0.0 0.00 0.00 0.00 70 1031.1
20260906072935 54 318 0.0 0.0 0.00 0.00 0.00 70 1031.4
20260906072430 54 334 0.0 0.9 0.00 0.00 0.00 70 1031.2
20260906071926 55 336 0.0 0.0 0.00 0.00 0.00 69 1031.1
20260906071421 55 336 0.0 0.0 0.00 0.00 0.00 67 1031.0
20260906070917 57 336 0.0 0.0 0.00 0.00 0.00 64 1031.2
20260906070413 57 336 0.0 0.0 0.00 0.00 0.00 61 1031.1
20260906065909 58 336 0.0 0.0 0.00 0.00 0.00 60 1031.1
20260906065402 57 336 0.0 0.0 0.00 0.00 0.00 60 1030.8
20260906064859 57 336 0.0 0.0 0.00 0.00 0.00 61 1031.2
20260906064355 57 336 0.0 0.0 0.00 0.00 0.00 61 1031.2
20260906063854 57 336 0.9 0.0 0.00 0.00 0.00 61 1031.1
20260906063350 57 338 0.0 0.0 0.00 0.00 0.00 61 1031.1
20260906062845 58 340 0.0 0.0 0.00 0.00 0.00 60 1031.1
20260906062344 59 349 0.0 0.0 0.00 0.00 0.00 58 1031.2
20260906061839 59 349 0.0 0.0 0.00 0.00 0.00 57 1031.2
20260906061336 60 350 0.0 0.0 0.00 0.00 0.00 56 1030.8
20260906060830 61 351 0.0 0.0 0.00 0.00 0.00 54 1031.1
20260906060328 61 351 0.9 0.9 0.00 0.00 0.00 53 1031.1
20260906055824 62 352 0.0 0.0 0.00 0.00 0.00 52 1031.1
20260906055319 62 352 0.9 0.9 0.00 0.00 0.00 50 1031.2
20260906054814 63 52 1.7 1.7 0.00 0.00 0.00 49 1031.1
20260906054309 63 53 1.7 1.7 0.00 0.00 0.00 50 1031.1
20260906053806 62 54 1.7 1.7 0.00 0.00 0.00 50 1031.0
20260906053301 62 29 0.9 0.9 0.00 0.00 0.00 51 1031.2
20260906052756 62 21 0.0 0.9 0.00 0.00 0.00 51 1031.1
20260906052252 62 88 3.5 3.5 0.00 0.00 0.00 51 1031.4
20260906051749 62 105 3.5 3.5 0.00 0.00 0.00 51 1031.4
20260906051249 62 75 1.7 2.6 0.00 0.00 0.00 51 1031.4
20260906050744 62 170 5.2 6.1 0.00 0.00 0.00 51 1031.4
20260906050239 61 102 7.0 8.7 0.00 0.00 0.00 52 1031.4
20260906045738 61 104 3.5 5.2 0.00 0.00 0.00 54 1031.4
20260906045233 60 97 4.3 5.2 0.00 0.00 0.00 55 1031.4
20260906044729 60 101 3.5 5.2 0.00 0.00 0.00 56 1031.5
20260906044224 60 68 0.9 0.9 0.00 0.00 0.00 57 1031.5
20260906043720 60 19 1.7 2.6 0.00 0.00 0.00 56 1031.4
20260906043216 61 110 4.3 5.2 0.00 0.00 0.00 56 1031.4
20260906042715 60 17 0.0 0.0 0.00 0.00 0.00 58 1031.8
20260906042208 60 49 0.9 0.9 0.00 0.00 0.00 57 1031.5
20260906041705 60 75 1.7 2.6 0.00 0.00 0.00 58 1031.6
20260906041205 60 61 2.6 3.5 0.00 0.00 0.00 60 1031.6
20260906040700 60 100 3.5 5.2 0.00 0.00 0.00 61 1032.1
20260906040155 60 129 5.2 6.1 0.00 0.00 0.00 61 1031.9
20260906035651 60 79 5.2 6.1 0.00 0.00 0.00 61 1031.9
20260906035146 60 115 6.1 7.8 0.00 0.00 0.00 60 1032.0
20260906034641 61 95 7.0 7.8 0.00 0.00 0.00 57 1032.1
20260906034136 60 112 7.8 8.7 0.00 0.00 0.00 56 1032.1
20260906033632 61 106 3.5 3.5 0.00 0.00 0.00 54 1032.0
20260906033132 61 100 1.7 1.7 0.00 0.00 0.00 55 1031.8
20260906032629 61 82 2.6 2.6 0.00 0.00 0.00 55 1031.6
20260906032128 61 93 2.6 2.6 0.00 0.00 0.00 56 1031.9
20260906031624 60 107 2.6 2.6 0.00 0.00 0.00 56 1031.6
20260906031119 60 2 1.7 1.7 0.00 0.00 0.00 58 1031.4
20260906030618 60 0 0.0 0.0 0.00 0.00 0.00 58 1031.4
20260906030114 60 19 0.0 0.9 0.00 0.00 0.00 57 1031.1
20260906025613 60 10 0.9 0.9 0.00 0.00 0.00 58 1031.1
20260906025111 59 15 0.9 0.9 0.00 0.00 0.00 58 1031.0
20260906024607 59 350 0.9 0.9 0.00 0.00 0.00 60 1031.1
20260906024101 59 344 1.7 1.7 0.00 0.00 0.00 60 1031.0
20260906023557 60 352 0.0 0.0 0.00 0.00 0.00 60 1030.8
20260906023051 60 350 0.0 0.0 0.00 0.00 0.00 60 1030.6
20260906022547 60 357 0.0 0.0 0.00 0.00 0.00 59 1030.8
20260906022042 61 30 0.9 0.9 0.00 0.00 0.00 58 1030.6
20260906021538 63 30 0.9 0.9 0.00 0.00 0.00 53 1030.8
20260906021037 63 28 0.9 0.9 0.00 0.00 0.00 50 1030.7
20260906020537 63 42 2.6 2.6 0.00 0.00 0.00 51 1030.5
20260906020036 63 114 1.7 3.5 0.00 0.00 0.00 53 1030.5
20260906015535 63 218 1.7 2.6 0.00 0.00 0.00 53 1030.7
20260906015030 63 246 1.7 1.7 0.00 0.00 0.00 54 1030.5
20260906014525 63 222 2.6 2.6 0.00 0.00 0.00 54 1030.2
20260906014021 64 242 1.7 1.7 0.00 0.00 0.00 53 1030.2
20260906013515 64 190 1.7 1.7 0.00 0.00 0.00 52 1030.5
20260906013012 65 243 1.7 2.6 0.00 0.00 0.00 50 1030.7
20260906012507 65 255 0.9 0.9 0.00 0.00 0.00 48 1030.7
20260906012005 65 122 0.0 0.0 0.00 0.00 0.00 48 1030.5
20260906011502 65 20 1.7 1.7 0.00 0.00 0.00 48 1030.6
20260906010956 66 110 3.5 3.5 0.00 0.00 0.00 48 1030.8
20260906010452 66 83 2.6 2.6 0.00 0.00 0.00 48 1030.7
20260906005948 66 87 3.5 5.2 0.00 0.00 0.00 50 1030.7
20260906005447 66 97 3.5 3.5 0.00 0.00 0.00 49 1031.0
20260906004946 66 106 3.5 3.5 0.00 0.00 0.00 47 1030.7
20260906004445 65 30 1.7 1.7 0.00 0.00 0.00 47 1030.8
20260906003942 65 27 1.7 1.7 0.00 0.00 0.00 48 1031.2
20260906003441 66 349 1.7 1.7 0.00 0.00 0.00 48 1031.1
20260906002937 67 282 1.7 1.7 0.00 0.00 0.00 48 1031.2
20260906002436 67 288 0.0 0.9 0.00 0.00 0.00 49 1031.0
20260906001932 67 259 0.0 0.0 0.00 0.00 0.00 47 1031.0
20260906001427 66 292 1.7 1.7 0.00 0.00 0.00 47 1030.8
20260906000922 66 263 2.6 2.6 0.00 0.00 0.00 49 1030.7
20260906000418 67 42 0.9 0.9 0.00 0.00 0.00 50 1030.6
20260905235913 67 351 0.0 0.0 0.00 0.00 0.00 50 1030.6
20260905235407 67 215 3.5 2.6 0.00 0.00 0.00 45 1030.8
20260905234902 67 194 1.7 0.9 0.00 0.00 0.00 48 1031.0
20260905234357 67 264 0.0 0.0 0.00 0.00 0.00 50 1030.8
20260905233852 67 263 1.7 1.7 0.00 0.00 0.00 48 1031.0
20260905233347 68 268 0.9 1.7 0.00 0.00 0.00 49 1030.8
20260905232846 67 250 1.7 1.7 0.00 0.00 0.00 46 1030.7
20260905232343 67 218 2.6 2.6 0.00 0.00 0.00 47 1031.1
20260905231838 68 171 3.5 5.2 0.00 0.00 0.00 43 1030.6
20260905231338 69 135 11.3 12.2 0.00 0.00 0.00 40 1030.6
20260905230836 70 166 9.6 9.6 0.00 0.00 0.00 37 1030.2
20260905230333 71 123 10.4 11.3 0.00 0.00 0.00 36 1030.2